Air Resources Laboratory banner image
Air Resources Laboratory web site National Oceanic and Atmospheric Administration (NOAA)

ma zone


NYZ176-178-MAZ016-IL014-TNZ027-NJZ106-GAZ044-MD014-141400-

...Gateway Observations for Charleston International...

CITY           SKY/WX    TMP DP  RH WIND       PRES   REMARKS
Chas Airport   PTCLDY    44  30  57 W9        29.91R
Seattle        MOCLDY    39  37  92 NE10      30.33F WCI  32
Charlotte      PTCLDY    37  22  54 SW3       29.80R
Dallas DFW     PTCLDY    44  30  57 N13       29.96R
Dallas Love    PTCLDY    41  28  60 N5        29.97R
Philladelphia  CLOUDY    34  25  69 SW10      29.60R WCI  26
Wash National  PTCLDY    38  19  46 W6        29.67R WCI  33
Baltimore      CLOUDY    36  21  54 W12       29.64R WCI  28
Miami          LGT RAIN  55  47  74 CALM      30.10R
Detroit        PTCLDY    15   7  70 NW7       29.93R WCI   5
Newark         LGT SNOW  25  22  88 N10       29.59R FOG     WCI  15
Laguardia      LGT SNOW  27  24  89 N8        29.59R FOG     WCI  19
J F K          LGT SNOW  27  25  92 N7        29.60R FOG     WCI  19
Boston Logan   FLURRIES  22  12  65 W10       29.61S WCI  11
Ft. Lauderdale SUNNY     52  47  83 NW5       30.09R
Chicago O'Hare PTCLDY    17   9  70 NW13      30.00R WCI   4
Chicago Midway PTCLDY    18  11  74 NW12      30.01R WCI   5
Houston Bush   PTCLDY    45  42  89 CALM      29.97R
Houston Hobby  MOCLDY    46  42  86 W3        29.97R
Nashville      PTCLDY    37  27  67 NW5       29.96R WCI  33
Atlanta        PTCLDY    39  29  67 W8        29.90R WCI  33


NYZ176-178-MAZ106-OHZ011-021-055-MIZ076-KYZ091-ILZ014-INZ047-
MNZ060-ONZ431-141400-

...Gateway Observations for Savannah International...

CITY           SKY/WX    TMP DP  RH WIND       PRES   REMARKS
Savannah Arpt  MOCLDY    41  36  82 SW7       29.96R
Atlanta        PTCLDY    39  29  67 W8        29.90R WCI  33
Charlotte      PTCLDY    37  22  54 SW3       29.80R
Dallas DFW     PTCLDY    44  30  57 N13       29.96R
Houston Bush   PTCLDY    45  42  89 CALM      29.97R
Wash National  PTCLDY    38  19  46 W6        29.67R WCI  33
Wash Dulles    PTCLDY    30  19  63 S3        29.66R
Baltimore      CLOUDY    36  21  54 W12       29.64R WCI  28
Philadelphia   CLOUDY    34  25  69 SW10      29.60R WCI  26
Newark         LGT SNOW  25  22  88 N10       29.59R FOG     WCI  15
Laguardia      LGT SNOW  27  24  89 N8        29.59R FOG     WCI  19
J F K          LGT SNOW  27  25  92 N7        29.60R FOG     WCI  19
Boston         FLURRIES  22  12  65 W10       29.61S WCI  11
Pittsburg      FLURRIES  25  20  81 W10       29.79R WCI  15
Akron          LGT SNOW  24  18  77 N9        29.82R WCI  14
Cleveland      MOCLDY    24  14  65 NW16      29.90R WCI  11
Cincinnati     CLOUDY    25  17  72 N13       29.93R WCI  14
Columbus       CLOUDY    23  17  77 N8        29.93R WCI  13
Detroit        PTCLDY    15   7  70 NW7       29.93R WCI   5
Chicago O'Hare PTCLDY    17   9  70 NW13      30.00R WCI   4
Minneapolis    PTCLDY    17  14  88 W3        30.03R
Indianapolis   CLOUDY    26  15  63 N12       29.96R WCI  16
Toronto Canada PTCLDY     5  -2  72 NW10      29.81R WCI -10